Regional Weather Roundup
Issued by NWS Nashville, TN

Home | Current Version | Previous Version | Text Only | Print | Product List | Glossary On
Versions: 1 2 3 4 5 6 7 8 9 10 11 12 13 14 15 16 17 18 19 20 21 22 23 24 25 26 27
000
ASUS44 KOHX 180210
RWROHX
MIDDLE TENNESSEE HOURLY WEATHER ROUNDUP
NATIONAL WEATHER SERVICE NASHVILLE TN
800 PM CST FRI NOV 17 2017

NOTE: "FAIR" INDICATES FEW OR NO CLOUDS BELOW 12,000 FEET WITH
NO SIGNIFICANT WEATHER AND/OR OBSTRUCTIONS TO VISIBILITY.

* THESE REPORTS ARE NOT UNDER NWS QUALITY CONTROL AND MAY NOT
  REPORT WEATHER SUCH AS PRECIPITATION AND FOG.


TNZ005>011-023>034-057-059-062>066-078-080-180300
...NORTHERN MIDDLE TENNESSEE...

CITY           SKY/WX    TMP DP  RH WIND       PRES   REMARKS
CLARKSVILLE    CLOUDY    61  33  35 S9        29.85F
CROSSVILLE     PTCLDY    53  35  50 VRB5      30.02F
GALLATIN       PTCLDY    57  36  44 S5        29.94F
NASHVILLE      CLOUDY    61  33  35 S17       29.91F
PORTLAND       PTCLDY    59  32  36 S14G21    29.89F
SMYRNA         CLOUDY    60  33  36 S10       29.94F
SPARTA         CLEAR     57  36  44 S13       29.96F
SPRINGFIELD    CLOUDY    61  34  36 S10G20    29.86F
WEST NASHVILLE PTCLDY    63  34  34 S13G20    29.88F
$$
TNZ056-058-060-061-075>077-079-093>097-180300
...SOUTHERN MIDDLE TENNESSEE...

CITY           SKY/WX    TMP DP  RH WIND       PRES   REMARKS
COLUMBIA       CLEAR     61  34  36 S14       29.91R
FAYETTEVILLE   CLEAR     57  36  44 S10       29.97F
MCMINNVILLE    CLEAR     59  32  36 VRB5      29.96F
MURFREESBORO   CLOUDY    59  34  39 S7        29.94F
PULASKI        MOCLDY    59  36  41 SE9G18    29.95F
SHELBYVILLE    CLEAR     59  34  38 S8        29.96F HAZE
TULLAHOMA      CLEAR     55  32  41 S7        29.96F
WINCHESTER     CLEAR     57  34  41 SE13      29.98F
$$


...KEY TO REMARKS...
VSB - VISIBILITY IN MILES
WCI - WIND CHILL INDEX
HX  - HEAT INDEX





USA.gov is the U.S. government's official web portal to all federal, state and local government web resources and services.